Monte Cimone, Italy

12:32 AM CEST on March 27, 2017 (GMT +0200)
Monte Cimone

Weather History for LIVC - July, 2013

Change the Weather History Date:

Saturday, July 6, 2013

  Actual Average Record
Temperature  
Mean Temperature 51 °F -  
Max Temperature 54 °F 55 °F 74 °F (2015)
Min Temperature 48 °F 46 °F 37 °F (1997)
Degree Days  
Heating Degree Days 14    
Growing Degree Days 1 (Base 50)    
Moisture  
Dew Point 47 °F    
Average Humidity 84    
Maximum Humidity 94    
Minimum Humidity 71    
Precipitation  
Precipitation 0.00 in 0.07 in - ()
Sea Level Pressure  
Sea Level Pressure 30.45 in    
Wind  
Wind Speed 21 mph ()    
Max Wind Speed 34 mph    
Max Gust Speed -    
Visibility 7.1 miles    
Events      
Averages and records for this station are not official NWS values.
T = Trace of Precipitation, MM = Missing Value Source: Averaged Metar Reports

Daily Weather History Graph

Daily Weather History Graph

Search for Another Location

Airport or City:

Trip Planner

Search our weather history database for the weather conditions in past years. The results will help you decide how hot, cold, wet, or windy it might be!

Date:

Astronomy

Jul. 06, 2013 Rise Set
Actual Time 5:40 AM CEST 9:03 PM CEST
Civil Twilight 5:04 AM CEST 9:39 PM CEST
Nautical Twilight 4:17 AM CEST 10:25 PM CEST
Astronomical Twilight 3:18 AM CEST 11:24 PM CEST
Moon 4:15 AM CEST (7/6) 7:29 PM CEST (7/6)
Length of Visible Light 16h 34m
Length of Day
15h 22m
Waning Crescent, 3% of the Moon is Illuminated
Jul 6
Waning Crescent
Jul 8
New
Jul 16
First Quarter
Jul 22
Full
Jul 29
Last Quarter

Hourly Weather History & Observations

Time (CEST) Temp. Dew Point Humidity Pressure Visibility Wind Dir Wind Speed Gust Speed Precip Events Conditions
12:55 AM 50.0 °F 48.2 °F 94% 30.48 in - NE 23.0 mph - N/A   Clear
1:55 AM 50.0 °F 44.6 °F 82% 30.48 in - NE 26.5 mph - N/A   Clear
2:00 AM 50 °F 45 °F 76%  in 12 mi NE 26.5 mph - -   Partly Cloudy
2:55 AM 50.0 °F 46.4 °F 87% 30.45 in - NNE 25.3 mph - N/A   Clear
3:55 AM 50.0 °F 44.6 °F 82% 30.45 in - NE 24.2 mph - N/A   Clear
4:55 AM 50.0 °F 48.2 °F 94% 30.45 in - ENE 27.6 mph - N/A   Clear
5:55 AM 50.0 °F 46.4 °F 87% 30.45 in 6.2 mi ENE 29.9 mph - N/A   Mostly Cloudy
6:55 AM 50.0 °F 44.6 °F 82% 30.42 in 6.2 mi ENE 34.5 mph - N/A   Mostly Cloudy
7:55 AM 50.0 °F 42.8 °F 76% 30.42 in 6.2 mi ENE 28.8 mph - N/A   Mostly Cloudy
8:00 AM 49 °F 43 °F 72%  in 16 mi ENE 28.8 mph - -   Mostly Cloudy
8:55 AM 50.0 °F 44.6 °F 82% 30.42 in 6.2 mi ENE 31.1 mph - N/A   Scattered Clouds
9:55 AM 50.0 °F 46.4 °F 87% 30.45 in 6.2 mi ENE 26.5 mph - N/A   Scattered Clouds
10:55 AM 51.8 °F 48.2 °F 88% 30.45 in 6.2 mi NE 27.6 mph - N/A   Partly Cloudy
11:55 AM 51.8 °F 48.2 °F 88% 30.45 in 6.2 mi NE 18.4 mph - N/A   Scattered Clouds
12:55 PM 53.6 °F 50.0 °F 88% 30.48 in 1.2 mi ENE 15.0 mph - N/A   Mostly Cloudy
1:55 PM 53.6 °F 50.0 °F 88% 30.48 in 6.2 mi ENE 13.8 mph - N/A   Mostly Cloudy
2:00 PM 53 °F 49 °F 84%  in 7 mi ENE 13.8 mph - -   Mostly Cloudy
2:55 PM 53.6 °F 48.2 °F 82% 30.45 in 6.2 mi NE 15.0 mph - N/A   Mostly Cloudy
3:55 PM 53.6 °F 50.0 °F 88% 30.45 in 6.2 mi NE 16.1 mph - N/A   Mostly Cloudy
4:55 PM 53.6 °F 48.2 °F 82% 30.45 in 6.2 mi NE 13.8 mph - N/A   Mostly Cloudy
5:55 PM 53.6 °F 48.2 °F 82% 30.45 in 6.2 mi NE 13.8 mph - N/A   Scattered Clouds
6:55 PM 51.8 °F 48.2 °F 88% 30.45 in 6.2 mi NE 16.1 mph - N/A   Scattered Clouds
7:55 PM 51.8 °F 48.2 °F 88% 30.45 in - NE 13.8 mph - N/A   Clear
8:00 PM 51 °F 48 °F 86%  in 12 mi NE 13.8 mph - -  
8:55 PM 51.8 °F 42.8 °F 71% 30.45 in - NE 15.0 mph - N/A   Clear
9:55 PM 50.0 °F 42.8 °F 76% 30.45 in 6.2 mi NE 25.3 mph - N/A   Partly Cloudy
10:55 PM 50.0 °F 42.8 °F 76% 30.45 in - NE 23.0 mph - N/A   Clear
11:55 PM 50.0 °F 46.4 °F 87% 30.45 in - NE 28.8 mph - N/A   Clear